This demonstration page uses our WeatherBlox Daily Observations layout. Learn more.

Left ArrowRight Arrow

Hourly Observations for April 3, 2022

Temp ( °F °C ) Dew Point ( °F °C ) Humidity (%) Winds ( mph kmh ) Pressure ( in mb ) Visibility ( mi km ) Precip ( " mm )
12:53 am 00:53 Clear 44 6.7 28 -2.2 53 53 S 8 13 29.97 1015 10 16 0.00 0.00
1:53 am 01:53 Clear 44 6.7 29 -1.7 55 55 S 9 15 29.95 1014 10 16 0.00 0.00
2:53 am 02:53 Clear 44 6.7 29 -1.7 55 55 SSE 8 13 29.93 1013 10 16 0.00 0.00
3:53 am 03:53 Clear 42 5.6 29 -1.7 60 60 SSE 9 15 29.90 1013 10 16 0.00 0.00
4:53 am 04:53 Clear 41 5 29 -1.7 62 62 SSE 7 11 29.88 1012 10 16 0.00 0.00
5:53 am 05:53 Clear 43 6.1 30 -1.1 60 60 SSE 12 19 29.87 1011 10 16 0.00 0.00
6:53 am 06:53 Clear 40 4.4 31 -0.6 70 70 VRB 3 6 29.91 1013 10 16 0.00 0.00
7:53 am 07:53 Sunny 37 2.8 30 -1.1 76 76 Calm 29.93 1014 10 16 0.00 0.00
8:53 am 08:53 Sunny 43 6.1 33 0.6 68 68 Calm 29.94 1014 10 16 0.00 0.00
9:53 am 09:53 Mostly Cloudy 47 8.3 33 0.6 59 59 Calm 29.94 1014 10 16 0.00 0.00
10:53 am 10:53 Sunny 54 12.2 34 1.1 47 47 SW 5 7 29.94 1014 10 16 0.00 0.00
11:53 am 11:53 Mostly Sunny 57 13.9 33 0.6 41 41 NNW 14 22 29.94 1014 10 16 0.00 0.00
12:53 pm 12:53 Partly Cloudy 57 13.9 31 -0.6 37 37 NNW 16 26 29.94 1014 10 16 0.00 0.00
1:53 pm 13:53 Mostly Sunny 60 15.6 31 -0.6 33 33 NNW 17 28 29.92 1013 10 16 0.00 0.00
2:53 pm 14:53 Sunny 65 18.3 27 -2.8 24 24 NNW 21 33 29.89 1012 10 16 0.00 0.00
3:53 pm 15:53 Partly Cloudy 61 16.1 23 -5 23 23 NW 18 30 29.89 1012 10 16 0.00 0.00
4:53 pm 16:53 Sunny 61 16.1 22 -5.6 22 22 NW 14 22 29.88 1012 10 16 0.00 0.00
5:53 pm 17:53 Sunny 62 16.7 15 -9.4 16 16 NNW 15 24 29.88 1012 10 16 0.00 0.00
6:53 pm 18:53 Sunny 61 16.1 17 -8.3 18 18 NW 15 24 29.89 1012 10 16 0.00 0.00
7:53 pm 19:53 Sunny 53 11.7 22 -5.6 30 30 NNW 7 11 29.92 1013 10 16 0.00 0.00
8:53 pm 20:53 Clear 46 7.8 21 -6.1 37 37 NW 6 9 29.94 1014 10 16 0.00 0.00
9:53 pm 21:53 Clear 43 6.1 21 -6.1 42 42 WNW 5 7 29.96 1015 10 16 0.00 0.00
10:53 pm 22:53 Clear 41 5 21 -6.1 45 45 WNW 5 7 29.96 1014 10 16 0.00 0.00
11:53 pm 23:53 Clear 44 6.7 23 -5 43 43 N 9 15 29.97 1015 10 16 0.00 0.00

Powered by AerisWeather